ONEWEB-0123

Last updated on Mon Jan 18 2021 00:02:03 GMT+0000 (Coordinated Universal Time)

1 47269U 20100M 21017.58334491 -.01477927 00000-0 -89551-1 0 9997 2 47269 87.4325 29.0622 0008489 152.4444 117.3044 15.13816991 1772

Satellite not in orbit